GW0672 Weather Reports


time (UTC)temp
C
wind
direction
speed
KPH
gust
KPH
rain 1hr
cm
rain 24hr
cm
rain mn
cm
humidity
%
barometer
mb
20260506165446 10 14 4.8 8.0 0.00 0.00 0.00 54 1014.8
20260506164941 9 276 3.2 4.8 0.00 0.00 0.00 56 1014.7
20260506164438 8 282 11.3 14.5 0.00 0.00 0.00 57 1014.9
20260506163936 10 300 4.8 9.7 0.00 0.00 0.00 57 1015.1
20260506163431 9 288 4.8 8.0 0.00 0.00 0.00 58 1014.9
20260506162926 8 328 8.0 9.7 0.00 0.00 0.00 58 1014.8
20260506162424 8 264 9.7 11.3 0.00 0.00 0.00 59 1015.2
20260506161921 8 308 6.4 9.7 0.00 0.00 0.00 59 1015.2
20260506161419 8 310 4.8 4.8 0.00 0.00 0.00 59 1015.3
20260506160911 8 283 6.4 8.0 0.00 0.00 0.00 59 1015.4
20260506160408 8 326 11.3 14.5 0.00 0.00 0.00 59 1015.3
20260506155906 8 307 8.0 9.7 0.00 0.00 0.00 60 1015.0
20260506155402 8 275 14.5 14.5 0.00 0.00 0.00 60 1015.3
20260506153519 9 315 3.2 4.8 0.00 0.00 0.00 60 1015.1
20260506153017 8 332 1.6 3.2 0.00 0.00 0.00 62 1014.8
20260506152514 9 314 4.8 8.0 0.00 0.00 0.00 61 1014.8
20260506152012 9 358 4.8 4.8 0.00 0.00 0.00 61 1014.9
20260506151509 9 348 6.4 8.0 0.00 0.00 0.00 64 1015.0
20260506151006 8 348 4.8 8.0 0.00 0.00 0.00 64 1014.8
20260506150502 7 346 4.8 8.0 0.00 0.00 0.00 64 1015.0
20260506145959 8 324 0.0 3.2 0.00 0.00 0.00 62 1014.8
20260506145456 8 19 11.3 14.5 0.00 0.00 0.00 62 1014.8
20260506144954 8 292 6.4 8.0 0.00 0.00 0.00 61 1014.9
20260506144450 8 282 8.0 9.7 0.00 0.00 0.00 60 1014.7
20260506143948 8 295 9.7 11.3 0.00 0.00 0.00 63 1014.7
20260506143445 8 79 4.8 8.0 0.00 0.00 0.00 60 1014.7
20260506142944 8 57 4.8 8.0 0.00 0.00 0.00 61 1014.6
20260506142441 7 320 3.2 3.2 0.00 0.00 0.00 60 1014.7
20260506141939 7 13 4.8 8.0 0.00 0.00 0.00 62 1014.5
20260506141436 8 87 9.7 16.1 0.00 0.00 0.00 61 1014.2
20260506140935 7 44 1.6 4.8 0.00 0.00 0.00 61 1014.3
20260506140431 7 113 11.3 11.3 0.00 0.00 0.00 61 1014.3
20260506135928 7 112 4.8 8.0 0.00 0.00 0.00 61 1014.3
20260506135426 7 41 3.2 3.2 0.00 0.00 0.00 63 1014.2
20260506134922 7 353 0.0 3.2 0.00 0.00 0.00 64 1014.3
20260506134418 7 93 6.4 9.7 0.00 0.00 0.00 65 1014.4
20260506133915 7 22 3.2 4.8 0.00 0.00 0.00 66 1014.4
20260506133411 6 72 4.8 4.8 0.00 0.00 0.00 66 1014.4
20260506132908 6 41 0.0 3.2 0.00 0.00 0.00 68 1014.3
20260506132405 6 292 4.8 8.0 0.00 0.00 0.00 69 1014.1
20260506131904 6 69 6.4 9.7 0.00 0.00 0.00 69 1014.1
20260506131359 6 122 9.7 11.3 0.00 0.00 0.00 70 1014.1
20260506130856 5 97 6.4 8.0 0.00 0.00 0.00 70 1014.4
20260506130352 5 325 3.2 4.8 0.00 0.00 0.00 72 1014.1
20260506125850 5 290 9.7 11.3 0.00 0.00 0.00 72 1014.0
20260506125349 5 330 4.8 4.8 0.00 0.00 0.00 71 1013.8
20260506124846 5 85 3.2 8.0 0.00 0.00 0.00 72 1014.0
20260506124344 5 72 4.8 4.8 0.00 0.00 0.00 72 1013.9
20260506123841 5 294 4.8 8.0 0.00 0.00 0.00 72 1013.9
20260506123340 5 284 3.2 3.2 0.00 0.00 0.00 72 1013.7
20260506122837 4 288 4.8 11.3 0.00 0.00 0.00 73 1013.8
20260506122333 5 321 3.2 4.8 0.00 0.00 0.00 73 1013.7
20260506121832 5 306 4.8 8.0 0.00 0.00 0.00 72 1013.7
20260506121328 5 48 0.0 3.2 0.00 0.00 0.00 75 1013.5
20260506120825 4 338 3.2 4.8 0.00 0.00 0.00 77 1013.6
20260506120323 4 332 4.8 4.8 0.00 0.00 0.00 78 1013.4
20260506115820 4 5 4.8 8.0 0.00 0.00 0.00 79 1013.3
20260506115319 4 307 3.2 4.8 0.00 0.00 0.00 80 1013.2
20260506114816 4 335 6.4 8.0 0.00 0.00 0.00 80 1013.4
20260506114314 4 309 4.8 4.8 0.00 0.00 0.00 81 1013.2
20260506113812 4 27 6.4 8.0 0.00 0.00 0.00 81 1012.7
20260506113309 5 336 4.8 4.8 0.00 0.00 0.00 80 1012.8
20260506112806 5 298 3.2 3.2 0.00 0.00 0.00 80 1012.9
20260506112305 4 339 3.2 4.8 0.00 0.00 0.00 82 1012.8
20260506111800 3 327 0.0 3.2 0.00 0.00 0.00 83 1012.8
20260506111258 3 326 1.6 3.2 0.00 0.00 0.00 85 1012.5
20260506110755 3 326 0.0 0.0 0.00 0.00 0.00 86 1012.7
20260506110253 3 297 0.0 0.0 0.00 0.00 0.00 89 1012.2
20260506105749 3 314 0.0 0.0 0.00 0.00 0.00 89 1012.2
20260506105246 3 304 0.0 0.0 0.00 0.00 0.00 89 1012.1
20260506104744 3 304 0.0 0.0 0.00 0.00 0.00 89 1011.8
20260506104241 3 299 0.0 0.0 0.00 0.00 0.00 88 1012.3
20260506103738 3 295 0.0 0.0 0.00 0.00 0.00 88 1012.4
20260506103236 3 296 0.0 0.0 0.00 0.00 0.00 88 1011.9
20260506102733 3 296 0.0 0.0 0.00 0.00 0.00 87 1011.8
20260506102231 3 296 0.0 0.0 0.00 0.00 0.00 86 1011.8
20260506101728 3 296 0.0 0.0 0.00 0.00 0.00 86 1011.7
20260506101224 4 296 0.0 0.0 0.00 0.00 0.00 85 1011.7
20260506100722 4 297 0.0 0.0 0.00 0.00 0.00 85 1011.7
20260506100220 5 304 0.0 0.0 0.00 0.00 0.00 85 1011.7
20260506095718 5 300 0.0 0.0 0.00 0.00 0.00 85 1011.4
20260506095215 5 315 0.0 0.0 0.00 0.00 0.00 86 1011.5
20260506094712 5 306 0.0 0.0 0.00 0.00 0.00 87 1011.0
20260506094210 5 34 0.0 0.0 0.00 0.00 0.00 88 1011.0
20260506093709 5 315 0.0 0.0 0.00 0.00 0.00 89 1010.8
20260506093205 6 297 3.2 3.2 0.00 0.00 0.00 89 1011.1
20260506092703 6 348 0.0 0.0 0.00 0.00 0.00 89 1011.0
20260506092200 6 312 0.0 3.2 0.00 0.00 0.00 89 1010.9
20260506091658 6 327 1.6 4.8 0.00 0.00 0.00 89 1011.1
20260506091155 6 301 0.0 0.0 0.00 0.00 0.00 88 1010.7
20260506090653 6 297 0.0 0.0 0.00 0.00 0.00 88 1010.7
20260506090149 6 296 4.8 4.8 0.00 0.00 0.00 88 1011.1
20260506085646 6 298 1.6 3.2 0.00 0.00 0.00 87 1011.2
20260506085142 6 321 1.6 3.2 0.00 0.00 0.00 87 1010.8
20260506084639 6 291 0.0 0.0 0.00 0.00 0.00 87 1010.9
20260506084136 6 302 0.0 0.0 0.00 0.00 0.00 86 1010.9
20260506083633 6 298 0.0 0.0 0.00 0.00 0.00 86 1010.8
20260506083130 6 295 0.0 0.0 0.00 0.00 0.00 85 1011.1
20260506082627 6 295 0.0 0.0 0.00 0.00 0.00 85 1010.9
20260506082122 6 296 0.0 3.2 0.00 0.00 0.00 85 1011.1
20260506081621 6 298 0.0 0.0 0.00 0.00 0.00 85 1011.0
20260506081118 6 295 0.0 0.0 0.00 0.00 0.00 84 1011.1
20260506080616 6 295 0.0 0.0 0.00 0.00 0.00 83 1011.0
20260506080112 6 295 0.0 0.0 0.00 0.00 0.00 81 1011.0
20260506073056 7 296 0.0 0.0 0.00 0.00 0.00 74 1010.8
20260506072553 7 295 1.6 3.2 0.00 0.00 0.00 73 1010.9
20260506072051 7 298 0.0 0.0 0.00 0.00 0.00 73 1010.7
20260506071548 7 294 3.2 4.8 0.00 0.00 0.00 72 1010.8
20260506071046 7 292 3.2 4.8 0.00 0.00 0.00 71 1010.9
20260506070542 7 294 1.6 3.2 0.00 0.00 0.00 71 1010.8
20260506062017 8 289 4.8 8.0 0.00 0.00 0.00 64 1011.0
20260506061512 8 294 4.8 4.8 0.00 0.00 0.00 63 1010.9
20260506061010 8 290 4.8 4.8 0.00 0.00 0.00 62 1010.7
20260506060509 8 300 3.2 4.8 0.00 0.00 0.00 61 1010.9
20260506050937 8 289 4.8 4.8 0.00 0.00 0.00 60 1010.3
20260506050435 8 293 8.0 9.7 0.00 0.00 0.00 59 1010.9
20260506044925 8 286 1.6 3.2 0.00 0.00 0.00 60 1010.7
20260506044424 8 288 3.2 4.8 0.00 0.00 0.00 60 1010.7
20260506043920 8 294 3.2 4.8 0.00 0.00 0.00 59 1010.5
20260506043418 8 293 1.6 3.2 0.00 0.00 0.00 59 1010.3
20260506042915 8 274 4.8 8.0 0.00 0.00 0.00 59 1010.4
20260506042415 8 287 3.2 4.8 0.00 0.00 0.00 59 1010.5
20260506041912 8 296 4.8 4.8 0.00 0.00 0.00 59 1010.4
20260506041410 8 296 1.6 3.2 0.00 0.00 0.00 59 1010.5
20260506040906 8 294 3.2 4.8 0.00 0.00 0.00 59 1010.6
20260506040404 8 296 1.6 3.2 0.00 0.00 0.00 59 1010.6
20260506035900 8 289 3.2 3.2 0.00 0.13 0.13 58 1010.7
20260506035358 8 297 3.2 4.8 0.00 0.13 0.13 59 1010.6
20260506034854 8 287 1.6 3.2 0.00 0.13 0.13 58 1010.6
20260506034352 8 289 3.2 4.8 0.00 0.13 0.13 58 1010.6
20260506033848 8 284 0.0 3.2 0.00 0.13 0.13 58 1010.7
20260506033345 8 293 0.0 3.2 0.00 0.13 0.13 59 1010.2
20260506032843 8 294 4.8 8.0 0.00 0.13 0.13 58 1010.5
20260506032339 8 297 1.6 3.2 0.00 0.13 0.13 58 1010.6
20260506031836 8 292 1.6 3.2 0.00 0.13 0.13 58 1010.6
20260506031333 8 291 0.0 0.0 0.00 0.13 0.13 59 1010.7
20260506030831 8 293 1.6 3.2 0.00 0.13 0.13 57 1010.6
20260506030329 8 284 0.0 3.2 0.00 0.13 0.13 58 1010.7
20260506025825 8 285 0.0 3.2 0.00 0.13 0.13 57 1010.4
20260506025321 8 283 0.0 0.0 0.00 0.13 0.13 58 1010.3
20260506024819 8 282 3.2 3.2 0.00 0.13 0.13 57 1010.3
20260506024316 8 282 0.0 3.2 0.00 0.13 0.13 58 1010.5
20260506023812 8 282 0.0 0.0 0.00 0.13 0.13 59 1010.5
20260506023309 8 282 0.0 0.0 0.00 0.13 0.13 59 1010.4
20260506022805 8 282 0.0 0.0 0.00 0.13 0.13 59 1010.4
20260506022305 8 282 0.0 0.0 0.00 0.13 0.13 58 1010.3
20260506021801 8 281 0.0 0.0 0.00 0.13 0.13 57 1010.6
20260506021258 9 280 3.2 4.8 0.00 0.13 0.13 57 1010.2
20260506020754 9 288 0.0 0.0 0.00 0.13 0.13 57 1010.5
20260506020253 9 286 0.0 0.0 0.00 0.13 0.13 56 1010.4
20260506015750 9 288 3.2 4.8 0.00 0.13 0.13 55 1010.3
20260506015247 9 286 0.0 0.0 0.00 0.13 0.13 56 1010.1
20260506014744 10 283 0.0 0.0 0.00 0.13 0.13 54 1010.0
20260506014241 10 293 0.0 0.0 0.00 0.13 0.13 54 1010.1
20260506013738 10 286 0.0 3.2 0.00 0.13 0.13 53 1009.8
20260506013235 10 284 1.6 3.2 0.00 0.13 0.13 53 1009.8
20260506012731 10 288 3.2 4.8 0.00 0.13 0.13 52 1009.9
20260506012228 10 281 3.2 4.8 0.00 0.13 0.13 52 1009.7
20260506011726 10 291 0.0 0.0 0.00 0.13 0.13 51 1009.5
20260506011221 10 289 0.0 0.0 0.00 0.13 0.13 53 1009.9
20260506010720 10 282 3.2 4.8 0.00 0.13 0.13 51 1009.7
20260506010217 10 282 1.6 3.2 0.00 0.13 0.13 51 1009.7
20260506005714 10 294 0.0 0.0 0.00 0.13 0.13 51 1009.8
20260506005211 10 287 0.0 0.0 0.00 0.13 0.13 50 1009.6
20260506004707 10 280 1.6 3.2 0.00 0.13 0.13 51 1009.8
20260506004205 10 292 3.2 4.8 0.00 0.13 0.13 50 1009.9
20260506003700 10 284 3.2 4.8 0.00 0.13 0.13 50 1009.9
20260506003157 10 295 1.6 3.2 0.00 0.13 0.13 49 1009.8
20260506002653 11 271 4.8 8.0 0.00 0.13 0.13 48 1009.6
20260506002149 11 286 3.2 4.8 0.00 0.13 0.13 49 1009.9
20260506001645 11 261 3.2 4.8 0.00 0.13 0.13 49 1009.8
20260506001143 11 288 6.4 9.7 0.00 0.13 0.13 47 1009.8
20260506000640 11 295 9.7 11.3 0.00 0.13 0.13 47 1009.7
20260506000137 11 288 6.4 9.7 0.00 0.13 0.13 46 1009.4
20260505235635 11 319 8.0 11.3 0.00 0.13 0.13 46 1009.5
20260505235132 11 329 8.0 9.7 0.00 0.13 0.13 46 1009.5
20260505234629 11 297 1.6 3.2 0.00 0.13 0.13 46 1009.5
20260505234125 11 273 4.8 8.0 0.00 0.13 0.13 45 1009.5
20260505233623 11 303 4.8 4.8 0.00 0.13 0.13 45 1009.0
20260505233120 11 291 4.8 4.8 0.00 0.13 0.13 44 1009.1
20260505232618 11 257 8.0 9.7 0.00 0.13 0.13 43 1009.1
20260505232115 11 292 1.6 3.2 0.00 0.13 0.13 47 1009.1
20260505231612 12 300 6.4 8.0 0.00 0.13 0.13 44 1008.9
20260505231110 12 298 3.2 4.8 0.00 0.13 0.13 43 1009.1
20260505230608 12 282 3.2 4.8 0.00 0.13 0.13 43 1008.9
20260505230104 12 266 4.8 8.0 0.00 0.13 0.13 44 1008.9
20260505225601 12 297 9.7 11.3 0.00 0.13 0.13 43 1009.1
20260505225056 12 293 6.4 9.7 0.00 0.13 0.13 44 1008.9
20260505224554 12 276 14.5 16.1 0.00 0.13 0.13 42 1009.1
20260505224051 12 295 4.8 8.0 0.00 0.13 0.13 44 1009.2
20260505223548 12 264 4.8 4.8 0.00 0.13 0.13 43 1009.1
20260505223044 12 248 8.0 9.7 0.00 0.13 0.13 42 1009.2
20260505222541 12 283 6.4 8.0 0.00 0.13 0.13 44 1009.3
20260505222037 12 316 6.4 8.0 0.00 0.13 0.13 44 1009.3
20260505221534 12 296 1.6 3.2 0.00 0.13 0.13 46 1009.1
20260505221030 12 286 11.3 14.5 0.00 0.13 0.13 43 1009.1
20260505220528 12 282 11.3 11.3 0.00 0.13 0.13 45 1009.0
20260505220026 12 273 6.4 9.7 0.00 0.13 0.13 47 1008.9
20260505215524 13 294 8.0 9.7 0.00 0.13 0.13 45 1009.1
20260505215021 12 304 6.4 8.0 0.00 0.13 0.13 45 1009.3
20260505214519 13 305 8.0 11.3 0.00 0.13 0.13 45 1009.2
20260505214016 13 267 9.7 11.3 0.00 0.13 0.13 46 1009.2
20260505213514 13 281 4.8 8.0 0.00 0.13 0.13 48 1009.1
20260505213009 13 302 11.3 11.3 0.00 0.13 0.13 46 1009.3
20260505212506 13 280 6.4 8.0 0.00 0.13 0.13 49 1009.0
20260505212003 13 301 9.7 11.3 0.00 0.13 0.13 49 1009.1
20260505211501 13 314 9.7 11.3 0.00 0.13 0.13 48 1009.1
20260505210957 13 299 6.4 8.0 0.00 0.13 0.13 50 1009.1
20260505210454 13 260 6.4 8.0 0.00 0.13 0.13 51 1009.1
20260505205950 13 302 8.0 9.7 0.00 0.13 0.13 51 1009.1
20260505205449 13 293 11.3 14.5 0.00 0.13 0.13 51 1009.0
20260505204945 13 302 4.8 4.8 0.00 0.13 0.13 53 1009.2
20260505204444 13 338 4.8 4.8 0.00 0.13 0.13 53 1009.3
20260505203940 13 283 6.4 8.0 0.00 0.13 0.13 54 1008.9
20260505203437 13 252 12.9 16.1 0.00 0.13 0.13 55 1009.1
20260505202933 13 289 6.4 8.0 0.00 0.13 0.13 54 1009.0
20260505202429 13 293 11.3 16.1 0.00 0.13 0.13 54 1009.1
20260505201926 13 310 4.8 4.8 0.00 0.13 0.13 57 1009.1
20260505201423 13 305 4.8 8.0 0.00 0.13 0.13 58 1008.9
20260505200921 13 326 1.6 3.2 0.00 0.13 0.13 59 1009.3
20260505200418 13 286 6.4 8.0 0.00 0.13 0.13 59 1008.9
20260505195914 13 292 3.2 4.8 0.00 0.13 0.13 59 1009.0
20260505195411 13 293 0.0 0.0 0.00 0.13 0.13 60 1009.2
20260505194908 12 258 4.8 4.8 0.00 0.13 0.13 58 1009.2
20260505194406 12 294 6.4 9.7 0.00 0.13 0.13 65 1009.3
20260505193905 13 283 3.2 3.2 0.00 0.13 0.13 65 1009.3
20260505193403 12 257 11.3 14.5 0.00 0.13 0.13 64 1009.3
20260505192900 12 295 4.8 8.0 0.00 0.13 0.13 63 1009.2
20260505192359 12 293 8.0 9.7 0.00 0.13 0.13 63 1009.3
20260505191856 12 279 8.0 11.3 0.00 0.13 0.13 64 1009.2
20260505191354 12 263 4.8 8.0 0.00 0.13 0.13 64 1009.3
20260505190851 12 276 4.8 8.0 0.00 0.13 0.13 66 1009.1
20260505190346 12 264 8.0 8.0 0.00 0.13 0.13 68 1009.2
20260505185842 12 284 3.2 4.8 0.00 0.13 0.13 68 1009.2
20260505185339 12 287 6.4 9.7 0.00 0.13 0.13 68 1008.9
20260505184835 12 263 6.4 8.0 0.00 0.13 0.13 67 1009.2
20260505184332 12 288 6.4 8.0 0.00 0.13 0.13 67 1009.1
20260505183829 12 290 6.4 9.7 0.00 0.13 0.13 67 1009.2
20260505183326 12 280 8.0 9.7 0.00 0.13 0.13 67 1009.2
20260505182823 12 289 6.4 8.0 0.00 0.13 0.13 66 1009.0
20260505182319 12 258 4.8 9.7 0.00 0.13 0.13 69 1008.9
20260505181816 12 272 8.0 11.3 0.00 0.13 0.13 69 1008.8
20260505181314 12 237 6.4 9.7 0.00 0.13 0.13 70 1008.6
20260505180810 12 275 8.0 9.7 0.00 0.13 0.13 72 1008.7
20260505180306 12 298 4.8 8.0 0.00 0.13 0.13 74 1008.6
20260505175803 12 292 3.2 4.8 0.00 0.13 0.13 73 1008.6
20260505175259 12 309 1.6 3.2 0.00 0.13 0.13 74 1008.6
20260505174756 11 284 11.3 11.3 0.00 0.13 0.13 74 1008.7
20260505174253 11 293 8.0 9.7 0.00 0.13 0.13 73 1008.6
20260505173749 12 183 6.4 9.7 0.00 0.13 0.13 73 1008.7
20260505173246 12 294 3.2 4.8 0.00 0.13 0.13 75 1008.5
20260505172743 12 255 8.0 9.7 0.00 0.13 0.13 75 1008.6
20260505172240 12 311 8.0 11.3 0.00 0.13 0.13 75 1009.0
20260505171740 12 259 4.8 8.0 0.00 0.13 0.13 75 1008.7
20260505171237 11 298 9.7 16.1 0.00 0.13 0.13 77 1008.5
20260505170734 11 250 4.8 8.0 0.00 0.13 0.13 79 1008.5
20260505170231 11 307 0.0 0.0 0.00 0.13 0.13 80 1008.5
20260505165726 11 268 4.8 8.0 0.00 0.13 0.13 79 1008.4